[[{"header":{"parameterUnit":"m.s-1","parameterCategory":1,"la1":30.2992,"la2":30.254,"lo1":-89.0895,"lo2":-89.0443,"dy":0.0025,"dx":0.0025,"nx":19,"ny":19,"refTime":"2026-04-12T21:00:00:Z","depth":0,"parameterNumber":2,"parameterNumberName":"U-component_of_WINDS"},"data":[0,0,0,-3.0335,-3.0336,-3.0391,-3.0391,-3.0473,-3.0474,0,0,0,0,0,0,0,0,0,0,0,-3.0326,-3.0327,-3.0335,-3.0337,-3.0391,-3.0391,-3.0473,-3.0474,0,0,0,0,0,0,0,0,0,0,0,-3.0326,-3.0326,-3.0327,-3.0337,-3.0391,-3.0391,-3.0473,-3.0428,0,0,0,0,0,0,0,0,0,0,-3.0373,-3.0371,-3.0326,-3.0327,-3.0337,-3.039,-3.0391,-3.0425,-3.043,-3.0454,0,-3.0476,0,-3.0477,-3.048,-3.0481,0,0,0,-3.0331,-3.0366,-3.0375,-3.0328,-3.0338,-3.039,-3.0365,-3.0428,-3.0434,-3.0461,-3.0477,-3.048,-3.0478,-3.0481,-3.0481,-3.0634,-3.0635,0,0,-3.0328,-3.0339,-3.0371,-3.0379,-3.037,-3.0363,-3.0366,-3.0431,-3.045,-3.0477,-3.0482,-3.0479,-3.0482,-3.0482,-3.0633,-3.0634,0,0,0,-3.0323,-3.0337,-3.0344,-3.0376,-3.0385,-3.0365,-3.0369,-3.0447,-3.0448,-3.0482,-3.048,-3.0482,-3.0483,-3.0632,-3.0634,-3.069,0,0,0,-3.0321,-3.0334,-3.0343,-3.035,-3.0384,-3.0416,-3.0383,-3.0444,-3.0451,-3.048,-3.0482,-3.0484,-3.0631,-3.0633,-3.0686,-3.0714,0,0,0,-3.032,-3.0334,-3.0344,-3.0351,-3.0374,-3.0415,-3.042,-3.0445,-3.045,-3.0481,-3.0485,-3.063,-3.0633,-3.0683,-3.0708,-3.0757,0,0,0,-3.0322,-3.0393,-3.0345,-3.0425,-3.0374,-3.045,-3.0419,-3.0475,-3.0509,-3.0483,-3.0631,-3.0633,-3.0682,-3.0705,-3.0754,-3.0799,-3.0819,0,0,-3.0418,-3.0405,-3.0452,-3.041,-3.0497,-3.0441,-3.0537,-3.0557,-3.0551,-3.0607,-3.0611,-3.0687,-3.0708,-3.0756,-3.0931,-3.0948,0,0,0,-3.0486,-3.0519,-3.054,-3.0572,-3.059,-3.0608,-3.0614,-3.0622,-3.0669,-3.0582,-3.0719,-3.0731,-3.0759,-3.078,-3.0793,-3.0816,-3.0644,-3.0644,-3.0644,-3.0636,-3.0625,-3.07,-3.0696,-3.0729,-3.0735,-3.076,-3.0772,-3.0751,-3.0784,-3.0799,-3.0907,-3.0932,-3.0942,-3.0967,-3.0824,-3.0824,-3.0825,-3.0825,-3.0775,-3.082,-3.0792,-3.0855,-3.0844,-3.0897,-3.0907,-3.0891,-3.0939,-3.0894,-3.0918,-3.0867,-3.096,-3.0981,-3.0829,-3.0828,-3.0828,-3.0827,-3.0827,-3.0871,-3.089,-3.09,-3.0947,-3.0985,-3.098,-3.1028,-3.1016,-3.1006,-3.103,-3.1045,-3.1044,-3.1041,-3.1038,-3.1039,-3.1039,-3.104,-3.104,-3.104,-3.0965,-3.0974,-3.1016,-3.1043,-3.1063,-3.1089,-3.1099,-3.1119,-3.1138,-3.1126,-3.1126,-3.1101,-3.0972,-3.0939,-3.1046,-3.1045,-3.1044,-3.1043,-3.1043,-3.1107,-3.1073,-3.1138,-3.1158,-3.1191,-3.123,-3.1216,-3.1259,-3.1274,-3.1299,-3.1271,-3.1178,-3.1164,-3.1153,-3.1125,-3.1273,-3.1273,-3.1273,-3.1273,-3.1186,-3.1179,-3.1243,-3.1277,-3.1309,-3.1303,-3.1379,-3.1388,-3.1393,-3.1402,-3.138,-3.1343,-3.1332,-3.1324,-3.131,-3.1283,-3.1469,-3.1469,-3.1469,-3.1273,-3.1268,-3.1333,-3.1337,-3.1362,-3.1385,-3.1455,-3.1497,-3.1495,-3.1477,-3.1409,-3.1401,-3.1341,-3.1323,-3.1299,-3.1277,-3.1229,0,0]},{"header":{"parameterUnit":"m.s-1","parameterCategory":1,"la1":30.2992,"la2":30.254,"lo1":-89.0895,"lo2":-89.0443,"dy":0.0025,"dx":0.0025,"nx":19,"ny":19,"refTime":"2026-04-12T21:00:00:Z","depth":0,"parameterNumber":3,"parameterNumberName":"V-component_of_WINDS"},"data":[0,0,0,2.8828,2.8828,2.8811,2.8811,2.8788,2.8788,0,0,0,0,0,0,0,0,0,0,0,2.8833,2.8833,2.8828,2.8828,2.8811,2.8811,2.8788,2.8788,0,0,0,0,0,0,0,0,0,0,0,2.8833,2.8833,2.8832,2.8828,2.8812,2.8811,2.8788,2.8801,0,0,0,0,0,0,0,0,0,0,2.8817,2.8821,2.8833,2.8832,2.8828,2.8812,2.8811,2.8801,2.88,2.8795,0,2.8791,0,2.8789,2.8786,2.8786,0,0,0,2.8827,2.8823,2.8819,2.8832,2.8827,2.8812,2.8819,2.8801,2.8799,2.8793,2.8791,2.879,2.8789,2.8786,2.8786,2.876,2.876,0,0,2.8828,2.8829,2.882,2.8818,2.8822,2.8819,2.8818,2.88,2.8797,2.8791,2.8789,2.8788,2.8786,2.8786,2.876,2.876,0,0,0,2.8831,2.883,2.8826,2.8819,2.8816,2.8819,2.8818,2.8798,2.8797,2.8789,2.8788,2.8786,2.8785,2.876,2.876,2.8757,0,0,0,2.8832,2.8832,2.8827,2.8827,2.8816,2.8807,2.8816,2.8798,2.8796,2.8788,2.8786,2.8785,2.8761,2.876,2.8758,2.8755,0,0,0,2.8834,2.8832,2.883,2.8827,2.8821,2.8807,2.8805,2.8798,2.8795,2.8786,2.8785,2.8761,2.876,2.8758,2.8755,2.8749,0,0,0,2.8836,2.8826,2.883,2.8818,2.8821,2.8806,2.8805,2.8794,2.8785,2.8785,2.8761,2.876,2.8758,2.8756,2.8749,2.8743,2.8741,0,0,2.8824,2.8825,2.8818,2.8821,2.8806,2.8809,2.8793,2.8783,2.878,2.8767,2.8766,2.8757,2.8755,2.8749,2.8729,2.8728,0,0,0,2.8814,2.8809,2.8805,2.8798,2.8792,2.8786,2.8779,2.8776,2.8765,2.8774,2.8753,2.8752,2.8748,2.8745,2.8744,2.874,2.8759,2.8759,2.8759,2.8798,2.8797,2.8785,2.8782,2.8775,2.8769,2.8763,2.8757,2.8756,2.8751,2.8747,2.8735,2.8732,2.8731,2.8727,2.8744,2.8744,2.8744,2.8744,2.878,2.8772,2.8774,2.8763,2.8761,2.8751,2.8745,2.8745,2.8734,2.8738,2.8735,2.8738,2.8729,2.8726,2.8744,2.8744,2.8744,2.8744,2.8744,2.8768,2.8765,2.8762,2.8753,2.8745,2.8742,2.8733,2.8731,2.8729,2.8726,2.8721,2.8721,2.872,2.8724,2.8724,2.8724,2.8724,2.8724,2.8724,2.8758,2.8755,2.8748,2.8742,2.8737,2.8731,2.8726,2.8721,2.8715,2.8714,2.8714,2.8713,2.8729,2.8733,2.8723,2.8723,2.8723,2.8723,2.8723,2.8739,2.8743,2.8733,2.8729,2.8721,2.8714,2.8713,2.8703,2.8699,2.8694,2.8695,2.8707,2.8707,2.8708,2.8711,2.8696,2.8696,2.8696,2.8696,2.8729,2.8729,2.8719,2.8713,2.8706,2.8704,2.8691,2.8687,2.8682,2.8679,2.8682,2.8686,2.8687,2.8686,2.8687,2.869,2.867,2.867,2.867,2.8717,2.8717,2.8707,2.8705,2.8699,2.8693,2.8681,2.8673,2.8669,2.8669,2.8677,2.8678,2.8685,2.8687,2.8686,2.8689,2.8694,0,0]}]]